Location: Unspecified
(0.0000°N, 0.0000°E)
Time: 22:17:27
(UTC+00:00)

DMSP F15 (USA 147) - Pass Details

Date: 10 October 2020
Orbit: 829 x 845 km, 99.0° (Epoch: 26 October)

Event Time Altitude Azimuth Distance (km) Brightness Sun altitude
Rises 02:31:57 0° 50° (NE) 3,360 8.7 -48.3°
Enters shadow 02:32:31 - 53° (NE) 3,194 8.6 -48.2°
Exits shadow 02:42:17 - 146° (SE) 2,844 8.3 -45.8°
Sets 02:44:10 0° 157° (SSE) 3,380 8.7 -45.3°
